Date String (YYYY-MM-DD hh:mm:ss) UTC,Instrument flags,Ambient pressure (hPa),Sample flow (lpm),Bypass flow (lpm),Sample temperature (°C),Ambient temperature (°C),ASC tube jacket temperature (°C),LED temperature (°C),Box temperature (°C),Sample RH (%),Span deviation,Mass concentration (μg/m³),Mass concentration (μg/m³),Mass concentration (μg/m³)
DateTimeUTC,F1_M11,P_M11,Q1_M11,Q2_M11,T1_M11,T2_M11,T3_M11,T4_M11,T5_M11,U1_M11,ZSPAN_M11,X0_M11,X2_M11,X1_M11
2021-10-20 17:00:00,,0830.8,5.01,0.00,24.5,23.8,00.0,33.5,26.5,17.8,0000.0,0009.66,0004.79,0004.32
2021-10-20 17:01:00,,0830.8,5.00,0.00,24.5,23.8,00.0,33.5,26.5,17.9,0000.0,0009.39,0004.72,0004.27
2021-10-20 17:02:00,,0830.8,5.00,0.00,24.6,23.8,00.0,33.5,26.5,17.9,0000.0,0009.44,0004.67,0004.22
2021-10-20 17:03:00,,0830.7,5.01,0.00,24.6,23.8,00.0,33.5,26.5,17.6,0000.0,0009.72,0004.65,0004.19
2021-10-20 17:04:00,,0830.7,4.99,0.00,24.6,23.8,00.0,33.5,26.5,17.9,0000.0,0009.52,0004.62,0004.17
2021-10-20 17:05:00,,0830.7,5.00,0.00,24.6,23.8,00.0,33.6,26.5,18.0,0000.0,0009.63,0004.60,0004.16
2021-10-20 17:06:00,,0830.7,5.00,0.00,24.6,23.8,00.0,33.6,26.5,17.5,0000.0,0009.56,0004.56,0004.12
2021-10-20 17:07:00,,0830.7,5.00,0.00,24.6,23.8,00.0,33.6,26.5,17.5,0000.0,0009.60,0004.56,0004.09
2021-10-20 17:08:00,,0830.8,5.01,0.00,24.6,23.9,00.0,33.6,26.5,17.7,0000.0,0009.51,0004.57,0004.07
2021-10-20 17:09:00,,0830.8,4.99,0.00,24.6,23.9,00.0,33.6,26.5,17.5,0000.0,0009.49,0004.57,0004.05
2021-10-20 17:10:00,,0830.8,4.99,0.00,24.6,23.9,00.0,33.6,26.5,17.7,0000.0,0009.53,0004.58,0004.06
2021-10-20 17:11:00,,0830.7,5.00,0.00,24.6,23.8,00.0,33.6,26.5,17.5,0000.0,0009.66,0004.58,0004.06
2021-10-20 17:12:00,,0830.7,4.99,0.00,24.7,23.9,00.0,33.6,26.5,18.0,-000.0,0009.76,0004.58,0004.06
2021-10-20 17:13:00,,0830.7,5.00,0.00,24.7,23.9,00.0,33.6,26.6,17.9,0000.0,0009.88,0004.63,0004.08
2021-10-20 17:14:00,,0830.8,5.00,0.00,24.7,23.9,00.0,33.7,26.6,17.6,0000.0,0009.76,0004.67,0004.07
2021-10-20 17:15:00,,0830.7,5.01,0.00,24.7,23.9,00.0,33.7,26.6,17.3,0000.0,0009.14,0004.67,0004.07
2021-10-20 17:16:00,,0830.7,4.98,0.00,24.7,23.9,00.0,33.7,26.6,17.3,0000.0,0010.44,0004.65,0004.03
2021-10-20 17:17:00,,0830.7,5.00,0.00,24.7,24.0,00.0,33.7,26.6,16.3,0000.0,0011.91,0004.63,0004.01
2021-10-20 17:18:00,,0830.8,5.01,0.00,24.7,24.0,00.0,33.7,26.7,15.9,0000.0,0011.88,0004.56,0003.95
2021-10-20 17:19:00,,0830.8,5.00,0.00,24.8,24.0,00.0,33.7,26.7,16.1,0000.0,0011.79,0004.49,0003.91
2021-10-20 17:20:00,,0830.8,4.99,0.00,24.8,24.0,00.0,33.7,26.7,16.6,0000.0,0011.65,0004.40,0003.86
2021-10-20 17:21:00,,0830.8,5.01,0.00,24.8,24.0,00.0,33.7,26.7,16.4,0000.0,0011.78,0004.30,0003.79
2021-10-20 17:22:00,,0830.8,4.99,0.00,24.8,24.1,00.0,33.8,26.7,16.7,0000.0,0011.79,0004.24,0003.74
2021-10-20 17:23:00,,0830.8,5.01,0.00,24.8,24.1,00.0,33.8,26.8,16.3,0000.0,0011.66,0004.20,0003.68
2021-10-20 17:24:00,,0830.8,5.00,0.00,24.9,24.1,00.0,33.8,26.8,16.5,0000.0,0011.37,0004.11,0003.63
2021-10-20 17:25:00,,0830.8,5.00,0.00,24.9,24.2,00.0,33.8,26.8,16.9,0000.0,0011.12,0004.03,0003.59
2021-10-20 17:26:00,,0830.7,5.00,0.00,24.9,24.2,00.0,33.8,26.8,16.5,0000.0,0011.28,0003.95,0003.53
2021-10-20 17:27:00,,0830.8,5.01,0.00,24.9,24.2,00.0,33.8,26.9,16.6,0000.0,0009.72,0003.88,0003.49
2021-10-20 17:28:00,,0830.8,5.00,0.00,24.9,24.2,00.0,33.9,26.8,16.9,0000.0,0008.38,0003.82,0003.48
2021-10-20 17:29:00,,0830.7,4.99,0.00,24.9,24.2,00.0,33.9,26.8,16.9,0000.0,0008.38,0003.80,0003.49
2021-10-20 17:30:00,,0830.7,5.00,0.00,25.0,24.2,00.0,33.9,26.9,16.5,0000.0,0008.40,0003.79,0003.48
2021-10-20 17:31:00,,0830.7,4.99,0.00,25.0,24.3,00.0,33.9,26.9,15.7,0000.0,0008.84,0003.73,0003.43
2021-10-20 17:32:00,,0830.6,5.01,0.00,25.0,24.3,00.0,33.9,26.9,15.4,0000.0,0008.84,0003.69,0003.37
2021-10-20 17:33:00,,0830.6,4.99,0.00,25.0,24.3,00.0,34.0,27.0,16.3,0000.0,0008.99,0003.67,0003.35
2021-10-20 17:34:00,,0830.6,5.00,0.00,25.0,24.3,00.0,34.0,27.0,16.3,0000.0,0009.47,0003.65,0003.34
2021-10-20 17:35:00,,0830.6,5.00,0.00,25.1,24.3,00.0,34.0,27.0,16.5,0000.0,0009.63,0003.65,0003.32
2021-10-20 17:36:00,,0830.6,4.99,0.00,25.1,24.4,00.0,34.0,27.0,15.8,0000.0,0010.06,0003.62,0003.28
2021-10-20 17:37:00,,0830.6,5.01,0.00,25.1,24.4,00.0,34.0,27.1,15.3,0000.0,0010.56,0003.57,0003.22
2021-10-20 17:38:00,,0830.6,5.01,0.00,25.1,24.4,00.0,34.0,27.1,14.9,0000.0,0010.75,0003.53,0003.17
2021-10-20 17:39:00,,0830.6,4.99,0.00,25.1,24.4,00.0,34.1,27.1,14.9,0000.0,0010.70,0003.45,0003.06
2021-10-20 17:40:00,,0830.6,5.01,0.00,25.1,24.4,00.0,34.1,27.1,15.2,0000.0,0010.16,0003.42,0002.97
2021-10-20 17:41:00,,0830.6,4.99,0.00,25.2,24.5,00.0,34.1,27.1,15.3,0000.0,0009.94,0003.38,0002.88
2021-10-20 17:42:00,,0830.6,5.01,0.00,25.2,24.5,00.0,34.1,27.2,15.7,0000.0,0009.46,0003.38,0002.87
2021-10-20 17:43:00,,0830.6,5.00,0.00,25.2,24.5,00.0,34.1,27.2,16.2,0000.0,0009.19,0003.41,0002.91
2021-10-20 17:44:00,,0830.6,5.01,0.00,25.2,24.6,00.0,34.2,27.2,16.0,0000.0,0008.94,0003.41,0002.90
2021-10-20 17:45:00,,0830.6,4.99,0.00,25.3,24.6,00.0,34.2,27.3,16.1,0000.0,0008.32,0003.37,0002.85
2021-10-20 17:46:00,,0830.6,5.01,0.00,25.3,24.6,00.0,34.2,27.3,16.3,0000.0,0008.10,0003.36,0002.85
2021-10-20 17:47:00,,0830.6,5.00,0.00,25.3,24.6,00.0,34.2,27.3,16.1,0000.0,0007.48,0003.34,0002.85
2021-10-20 17:48:00,,0830.6,5.00,0.00,25.3,24.6,00.0,34.3,27.3,16.0,0000.0,0006.01,0003.35,0002.88
2021-10-20 17:49:00,,0830.6,5.00,0.00,25.3,24.6,00.0,34.3,27.3,15.9,0000.0,0006.16,0003.38,0002.93
2021-10-20 17:50:00,,0830.6,5.00,0.00,25.4,24.6,00.0,34.3,27.3,15.8,0000.0,0006.35,0003.46,0002.99
2021-10-20 17:51:00,,0830.6,5.00,0.00,25.4,24.7,00.0,34.3,27.3,15.5,0000.0,0006.39,0003.47,0002.98
2021-10-20 17:52:00,,0830.6,4.99,0.00,25.4,24.7,00.0,34.3,27.4,15.5,0000.0,0006.41,0003.44,0002.94
2021-10-20 17:53:00,,0830.6,5.00,0.00,25.4,24.7,00.0,34.3,27.4,15.4,0000.0,0006.60,0003.42,0002.90
2021-10-20 17:54:00,,0830.6,5.01,0.00,25.4,24.7,00.0,34.4,27.4,15.0,0000.0,0006.55,0003.34,0002.80
2021-10-20 17:55:00,,0830.6,4.99,0.00,25.4,24.8,00.0,34.4,27.4,15.6,0000.0,0006.48,0003.28,0002.71
2021-10-20 17:56:00,,0830.6,5.01,0.00,25.5,24.8,00.0,34.4,27.4,15.4,0000.0,0006.31,0003.24,0002.63
2021-10-20 17:57:00,,0830.6,5.01,0.00,25.5,24.8,00.0,34.4,27.5,15.4,0000.0,0006.19,0003.19,0002.55
2021-10-20 17:58:00,,0830.6,5.00,0.00,25.5,24.8,00.0,34.4,27.5,15.0,0000.0,0005.95,0003.14,0002.48
2021-10-20 17:59:00,,0830.6,4.99,0.00,25.5,24.8,00.0,34.5,27.5,15.1,0000.0,0005.47,0003.07,0002.38
